Regional Weather Roundup
Issued by NWS

Home | Current Version | Previous Version | Graphics & Text | Print | Product List | Glossary On
Versions: 1 2 3 4 5 6 7 8 9 10 11 12 13 14 15 16 17 18 19 20 21 22 23 24 25 26 27 28 29 30 31 32 33 34 35 36 37 38 39 40 41 42 43 44 45 46 47 48 49 50
000
ASUS43 KLOT 280110
RWRIL

ILLINOIS REGIONAL WEATHER ROUNDUP
NATIONAL WEATHER SERVICE CHICAGO/ROMEOVILLE IL
700 PM CST TUE JAN 27 2015

NOTE: "FAIR" INDICATES FEW OR NO CLOUDS BELOW 12,000 FEET WITH NO
SIGNIFICANT WEATHER AND/OR OBSTRUCTIONS TO VISIBILITY.

* THESE STATIONS ARE NOT UNDER NWS QUALITY CONTROL. THEY ALSO MAY NOT
  REPORT WEATHER SUCH AS PRECIPITATION OR FOG.

ILZ001-002-007-009-015-016-024-280200-
NORTHWEST ILLINOIS

CITY           SKY/WX    TMP DP  RH WIND       PRES   REMARKS
MOLINE         CLOUDY    27  22  81 SE6       30.24S WCI  20
STERLING*      CLOUDY    28  23  80 SE6       30.24R WCI  22
SAVANNA*       CLOUDY    29  25  85 CALM      30.23F
$$

ILZ003-004-008-010-011-017-018-280200-
NORTH CENTRAL ILLINOIS

CITY           SKY/WX    TMP DP  RH WIND       PRES   REMARKS
ROCKFORD       MOCLDY    30  23  75 CALM      30.25S
FREEPORT*      CLOUDY    28  25  88 S3        30.23F
ROCHELLE*      MOCLDY    25  20  83 CALM      30.24S
DE KALB*       CLEAR     24  20  87 CALM      30.23S
PERU*          CLOUDY    30  25  80 E5        30.25R WCI  25
$$

ILZ005-006-012>014-019>023-280200-
NORTHEAST ILLINOIS

CITY           SKY/WX    TMP DP  RH WIND       PRES   REMARKS
CHICAGO-OHARE  PTCLDY    25  16  68 NE6       30.24R WCI  18
CHICAGO-MIDWAY PTCLDY    28  17  63 N7        30.25R WCI  21
AURORA         CLEAR     25  20  81 N3        30.24R
LANSING*       CLEAR     26  18  72 N3        30.25R
JOLIET*        CLEAR     24  17  74 CALM      30.25R
WAUKEGAN       CLEAR     18  15  88 N3        30.24S
DUPAGE AIRPORT CLEAR     25  16  68 NE6       30.24R WCI  18
KANKAKEE*      CLEAR     25  19  78 NE3       30.26R
WHEELING       CLEAR     25  17  72 NE3       30.26R
MORRIS*        CLEAR     26  22  84 CALM      30.24R
ROMEOVILLE*    CLEAR     25  17  70 E5        30.24S WCI  19
NORTHERLY ISL    N/A     27  18  69 MISG        N/A
$$

LMZ740>746-280200-
SOUTHERN LAKE MICHIGAN

STATION/POSITION SKY/WX   TEMP    WIND        PRES    VSBY  WAVE
                          AIR SEA DIR/SP/G                  HT/PER
                          (F)     (DEG/KT/KT) (MB)    (MI)  (FT/S)
WAUKEGAN HARBOR            26     360/  6/ 13   N/A
HARRISON CRIB              27      10/ 11/ 13   N/A
BURNHAM HARBOR             26     350/  9/ 10   N/A
CALUMET HARBOR             27     360/  6/ 10   N/A
MICHIGAN CITY              27     360/ 11/ 14   N/A
$$

ILZ025>027-034>036-040-047-049-050-058-095>099-280200-
WEST-CENTRAL ILLINOIS

CITY           SKY/WX    TMP DP  RH WIND       PRES   REMARKS
QUINCY         CLEAR     30  26  85 E9        30.21R WCI  22
GALESBURG*     CLOUDY    27  24  88 E5        30.23S WCI  22
MACOMB*        CLOUDY    29  27  90 E6        30.26R WCI  23
JACKSONVILLE*  CLOUDY    33  28  85 E8        30.23S WCI  25
PITTSFIELD*    PTCLDY    31  28  86 E7        30.24R WCI  24
$$

ILZ028>032-037-038-041>044-048-051>054-059>061-280200-
CENTRAL ILLINOIS

CITY           SKY/WX    TMP DP  RH WIND       PRES   REMARKS
PONTIAC        CLOUDY    31  26  82 CALM      30.25R
BLOOMINGTON    CLOUDY    30  26  85 E6        30.24S WCI  24
DECATUR        CLOUDY    31  26  82 NE6       30.25R WCI  25
PEORIA         CLOUDY    31  24  75 CALM      30.25R
LACON*         CLOUDY    29  25  82 CALM      30.24S
LINCOLN*       CLOUDY    33  28  81 E5        30.26R WCI  28
SPRINGFIELD    CLOUDY    32  25  75 E5        30.25R WCI  27
TAYLORVILLE    CLOUDY    32  27  80 N3        30.25R
$$

ILZ033-039-045-046-055>057-062-063-280200-
EAST-CENTRAL ILLINOIS

CITY           SKY/WX    TMP DP  RH WIND       PRES   REMARKS
CHAMPAIGN      CLEAR     24  20  84 N5        30.24R WCI  18
DANVILLE*      CLEAR     25  20  80 CALM      30.22R
RANTOUL*       CLEAR     28  23  82 CALM      30.24R
MATTOON        PTCLDY    28  23  81 NE6       30.23R WCI  22
PARIS*         CLEAR     27  20  77 CALM      30.25R
$$

ILZ079-100>102-280200-
SOUTHWEST ILLINOIS

CITY           SKY/WX    TMP DP  RH WIND       PRES   REMARKS
ALTON          PTCLDY    32  27  80 NE5       30.24R WCI  27
BELLEVILLE     CLEAR     31  29  92 NE2       30.24R
CAHOKIA*       CLEAR     33  28  81 E7        30.24R WCI  27
SPARTA*        CLEAR     32  28  85 NE8       30.24R WCI  25
$$

ILZ064>066-069>071-074>076-080>082-084>086-088>090-092>094-280200-
SOUTH-CENTRAL ILLINOIS

CITY           SKY/WX    TMP DP  RH WIND       PRES   REMARKS
CARBONDALE     CLEAR     34  27  75 NE5       30.23R WCI  30
CAIRO*         CLEAR     41  30  65 N5        30.21S
EFFINGHAM*     CLOUDY    32  25  76 N3        30.26S
MARION         CLEAR     36  28  75 NE8       30.24R WCI  29
MT. VERNON     PTCLDY    32  25  74 N3        30.25R
CENTRALIA*     CLEAR     32  27  80 CALM      30.24S
SALEM*         PTCLDY    32  29  87 CALM      30.24R
METROPOLIS*    CLEAR     37  31  79 NE3       30.22R
$$

ILZ067-068-072-073-078-083-087-091-280200-
SOUTHEAST ILLINOIS

CITY           SKY/WX    TMP DP  RH WIND       PRES   REMARKS
LAWRENCEVILLE  CLOUDY    32  28  85 N6        30.25R WCI  26
FLORA*         MOCLDY    32  29  88 N3        30.25S
FAIRFIELD*     CLOUDY    33  30  86 N7        30.24R WCI  27
HARRISBURG*    CLOUDY    36  30  80 N6        30.26R WCI  31
ROBINSON*      CLOUDY    32  29  90 N5        30.26R WCI  27
CARMI*         CLOUDY    36  32  87 N7        30.24R WCI  30
$$

ABBREVIATIONS USED IN REMARKS
   TC - TEMPERATURE IN CELSIUS
  WCI - WIND CHILL INDEX
   HX - HEAT INDEX
  VSB - VISIBILITY
$$




USA.gov is the U.S. government's official web portal to all federal, state and local government web resources and services.